User: anonymous
Location: Fort Wayne
(41.1310°N, 85.1290°W)
Time: 13:55:23
(UTC-04:00)
Language:

Helios 1B - Orbit

View from above orbital plane
View from above orbital plane
View from above satellite
View from above satellite

Ground track
Ground track

The orbit data is extracted from the following two-line orbital elements,

1 25977U 99064A   14203.85017677  .00000269  00000-0  42414-4 0  3113
2 25977 098.1648 281.8942 0002585 111.9241 005.1176 14.80345607787001
Epoch (UTC): 22 July 2014 20:24:15
Eccentricity: 0.0002585
inclination: 98.1648°
perigee height: 626 km
apogee height: 630 km
right ascension of ascending node: 281.8942°
argument of perigee: 111.9241°
revolutions per day: 14.80345607
mean anomaly at epoch: 5.1176°
orbit number at epoch: 78700

The dashed part of the orbit path shows where the satellite is in the earth's shadow,  

DLR